Regional Weather Roundup
Issued by NWS

Home | Current Version | Previous Version | Graphics & Text | Print | Product List | Glossary On
Versions: 1 2 3 4 5 6 7 8 9 10 11 12 13 14 15 16 17 18 19 20 21 22 23 24 25 26 27 28 29 30 31 32 33 34 35 36 37 38 39 40 41 42 43 44 45 46 47 48 49 50
000
ASUS43 KBIS 300810
RWRND

NORTH DAKOTA REGIONAL WEATHER ROUNDUP
NATIONAL WEATHER SERVICE BISMARCK ND
300 AM CDT TUE AUG 30 2016

NOTE: "FAIR" INDICATES FEW OR NO CLOUDS BELOW 12,000 FEET WITH NO
SIGNIFICANT WEATHER AND/OR OBSTRUCTIONS TO VISIBILITY.


NDZ001>003-009>011-017-300900-
NORTHWEST NORTH DAKOTA

CITY           SKY/WX    TMP DP  RH WIND       PRES   REMARKS
WILLISTON      CLEAR     56  43  61 CALM      30.21F
MINOT          CLEAR     56  47  71 CALM      30.23S
MINOT AFB      CLEAR     49  44  81 SW7       30.22S
$$

NDZ018>021-031>035-040>046-300900-
SOUTHWEST NORTH DAKOTA

CITY           SKY/WX    TMP DP  RH WIND       PRES   REMARKS
BISMARCK       CLEAR     49  47  93 S3        30.25S
DICKINSON      CLEAR     51  44  77 SE8       30.24S
GARRISON         N/A     49  44  83 CALM      30.24S
HETTINGER ARPT CLEAR     59  50  72 E9        30.27S
$$

NDZ004>008-012>016-024-026-027-054-300900-
NORTHEAST NORTH DAKOTA

CITY           SKY/WX    TMP DP  RH WIND       PRES   REMARKS
GRAND FORKS    CLEAR     51  48  89 CALM      30.22R
GRND FRKS AFB  CLEAR     53  48  82 SW5       30.22S
DEVILS LAKE    CLEAR     52  49  89 CALM      30.24S
$$

NDZ022-023-025-028>030-036>039-047>053-300900-
SOUTHEAST NORTH DAKOTA

CITY           SKY/WX    TMP DP  RH WIND       PRES   REMARKS
FARGO          CLEAR     55  50  83 CALM      30.22R
JAMESTOWN      CLEAR     53  50  89 NE5       30.24S
$$





USA.gov is the U.S. government's official web portal to all federal, state and local government web resources and services.